Back to catalog

CZ-6A DEB

AliveSSO
NORAD 54960·DEBRIS·🇨🇳 China

Launched Nov 11, 2022 from Taiyuan Satellite Launch Center

Loading…

Next Passes (next 24 hours)

TLE

FreshSource: Space-Track

Epoch: Sep 14, 2026, 10:40 UTC

1 54960U 22151SZ  26257.44510187  .00000001  00000-0  25169-4 0  9995
2 54960  98.8395 251.9516 0048537  92.9284 267.7442 14.09491860196244

Track CZ-6A DEB in real time with AllMySat

Download on the App Store